Location: Amsterdam
(30.7274°N, 84.4357°W)
Time: 20:31:21
(UTC+00:00)

A-11 Canister half - Visible Passes

Search period start: 15 February 2026 00:00
Search period end: 25 February 2026 00:00
Orbit: 1512 x 1687 km, 47.2° (Epoch: 15 February)

Date Brightness Start Highest point End Pass type
(mag) Time Alt. Az. Time Alt. Az. Time Alt. Az.
15 Feb 9.0 01:46:32 10° SSW 01:56:31 63° SE 01:56:32 63° SE visible
15 Feb 10.8 03:52:08 10° W 03:54:47 20° W 03:54:47 20° W visible
15 Feb 10.2 08:19:51 32° ENE 08:19:51 32° ENE 08:25:23 10° E visible
15 Feb 8.9 10:18:04 39° WNW 10:22:18 80° SW 10:31:35 10° SE visible
16 Feb 9.1 01:23:34 10° SSW 01:33:28 59° SE 01:35:33 51° E visible
16 Feb 10.4 03:28:53 10° WSW 03:33:49 31° W 03:33:49 31° W visible
16 Feb 10.6 07:58:33 24° ENE 07:58:33 24° ENE 08:02:11 10° E visible
16 Feb 8.8 09:56:47 56° WNW 09:59:15 85° SW 10:08:36 10° SE visible
17 Feb 9.2 01:00:37 10° SSW 01:10:25 55° SE 01:14:34 36° ENE visible
17 Feb 9.9 03:05:40 10° WSW 03:12:49 44° WNW 03:12:49 44° WNW visible
17 Feb 11.0 07:37:20 16° E 07:37:20 16° E 07:38:58 10° E visible
17 Feb 8.8 09:35:34 81° NW 09:36:13 89° SW 09:45:35 10° SE visible
17 Feb 10.0 11:33:48 11° W 11:40:10 23° SW 11:46:57 10° S visible
18 Feb 9.3 00:37:41 10° SSW 00:47:22 51° SE 00:53:32 24° ENE visible
18 Feb 9.5 02:42:27 10° WSW 02:51:47 56° NW 02:51:47 56° NW visible
18 Feb 9.0 09:14:26 71° ESE 09:14:26 71° ESE 09:22:34 10° SE visible
18 Feb 9.9 11:12:40 18° W 11:17:13 25° SW 11:24:21 10° S visible
19 Feb 9.4 00:14:47 10° SSW 00:24:20 48° SE 00:32:26 15° ENE visible
19 Feb 9.4 02:19:15 10° WSW 02:29:17 60° NNW 02:30:41 56° N visible
19 Feb 11.1 04:27:31 10° WNW 04:28:55 14° WNW 04:28:55 14° WNW visible
19 Feb 9.6 08:53:21 48° ESE 08:53:21 48° ESE 08:59:32 10° SE visible
19 Feb 9.8 10:51:36 24° W 10:54:15 28° SW 11:01:43 10° S visible
19 Feb 9.6 23:51:54 10° SSW 00:01:18 44° SE 00:10:41 10° ENE visible
20 Feb 9.4 01:56:05 10° WSW 02:06:09 63° NNW 02:09:31 44° NNE visible
20 Feb 10.8 04:04:12 10° WNW 04:07:45 21° NW 04:07:45 21° NW visible
20 Feb 10.2 08:32:20 31° ESE 08:32:20 31° ESE 08:36:28 10° SE visible
20 Feb 9.6 10:30:35 30° WSW 10:31:17 30° SW 10:39:02 10° S visible
21 Feb 9.3 01:32:54 10° WSW 01:43:02 66° NW 01:48:16 33° NE visible
21 Feb 10.5 03:40:54 10° WNW 03:46:30 27° NW 03:46:30 27° NW visible
21 Feb 10.7 08:11:20 19° ESE 08:11:20 19° ESE 08:13:25 10° ESE visible
21 Feb 9.7 10:09:35 32° SW 10:09:35 32° SW 10:16:20 10° S visible
22 Feb 9.3 01:09:45 10° WSW 01:19:54 70° NW 01:26:57 23° NE visible
22 Feb 10.3 03:17:37 10° WNW 03:25:10 32° NNW 03:25:10 32° NNW visible
22 Feb 9.9 09:48:37 29° SSW 09:48:37 29° SSW 09:53:35 10° S visible
23 Feb 9.3 00:46:37 10° WSW 00:56:47 74° NW 01:05:33 15° NE visible
23 Feb 10.1 02:54:18 10° WNW 03:03:19 34° NNW 03:03:46 34° N visible
23 Feb 10.3 09:27:39 22° S 09:27:39 22° S 09:30:49 10° SSE visible
24 Feb 9.3 00:23:30 10° SW 00:33:41 77° NW 00:43:52 10° NE visible
24 Feb 10.1 02:31:00 10° W 02:40:07 35° NNW 02:42:18 32° N visible
24 Feb 11.2 04:39:10 10° NW 04:40:31 14° NW 04:40:31 14° NW visible
24 Feb 10.7 09:06:40 15° SSE 09:06:40 15° SSE 09:08:00 10° SSE visible
